Home > Weather > Atlantic City > Past weeks

Flag for U.S.A. Weather for the Past 2 Weeks in Atlantic City, New Jersey, U.S.A.

Now
37 °F

Cloudy.


Feels Like: 28 °F
Forecast: 34 / 40 °F
Wind: 15 mph from Northeast

Location: Atlantic City International Airport

Current Time: Feb 8, 2016 at 10:39:32 AM

Latest Report: Feb 8, 2016 at 9:54 AM


Visibility: 10 mi

Pressure: 29.76 "Hg

Humidity: 86%

Dew point: 33 °F

Location of Atlantic CityLocation

Historic Weather in Atlantic City — Graph

°F

Atlantic City Temperature Yesterday

Maximum temperature yesterday: 44 °F (at 12:54 PM)
Minimum temperature yesterday: 21 °F (at 5:54 AM)
Average temperature yesterday: 34 °F

High & Low Weather Summary for the Past Weeks

 TemperatureHumidityPressure
High65 °F (Feb 1, 11:54 AM)100% (Feb 4, 6:00 AM)30.46 "Hg (Feb 4, 6:00 AM)
Low18 °F (Jan 25, 3:54 AM)33% (Jan 31, 1:54 PM)29.52 "Hg (Jan 29, 4:54 AM)
Average40 °F70%30.04 "Hg
* Reported Jan 24 8:54 AM — Feb 8 8:54 AM, Atlantic City, Weather by CustomWeather, © 2016

Note: Actual official high and low records may vary slightly from our data, if they occured in-between our weather recording intervals... More about our weather records

Advertising

Atlantic City Weather History for the Previous 24 Hours

 ConditionsComfort  
Time TempWeatherWind HumidityBarometerVisibility
8:54 AM
Mon, Feb 8
37 °FLight rain. Fog.15 mph89%29.75 "Hg5 mi
7:54 AM38 °FMostly cloudy.14 mph86%29.73 "Hg10 mi
6:54 AM39 °FOvercast.10 mph76%29.72 "Hg10 mi
5:54 AM39 °FOvercast.16 mph70%29.69 "Hg10 mi
4:54 AM39 °FOvercast.16 mph67%29.68 "Hg10 mi
3:54 AM39 °FPassing clouds.18 mph70%29.66 "Hg10 mi
2:54 AM39 °FPassing clouds.18 mph73%29.66 "Hg10 mi
1:54 AM40 °FMostly cloudy.21 mph77%29.70 "Hg10 mi
12:54 AM40 °FPassing clouds.18 mph80%29.73 "Hg10 mi
11:54 PM
Sun, Feb 7
39 °FOvercast.13 mph79%29.78 "Hg10 mi
9:54 PM39 °FPassing clouds.13 mph76%29.85 "Hg10 mi
8:54 PM39 °FClear.10 mph73%29.90 "Hg10 mi
7:54 PM38 °FClear.12 mph73%29.92 "Hg10 mi
6:54 PM38 °FClear.8 mph73%29.96 "Hg10 mi
5:54 PM38 °FClear.7 mph65%29.99 "Hg10 mi
4:54 PM40 °FSunny.8 mph58%29.99 "Hg10 mi
3:54 PM42 °FSunny.8 mph57%30.01 "Hg10 mi
2:54 PM43 °FSunny.8 mph53%30.00 "Hg10 mi
1:54 PM44 °FSunny.7 mph45%30.07 "Hg10 mi
12:54 PM44 °FSunny.5 mph47%30.12 "Hg10 mi
11:54 AM42 °FSunny.6 mph51%30.14 "Hg10 mi
10:54 AM40 °FSunny.7 mph58%30.15 "Hg10 mi
Weather by CustomWeather, © 2016

See weather overviewHow to use our weather pages